Flag for United Kingdom Weather past 2 weeks in Belfast, Northern Ireland, United Kingdom

Now
55 °F

Partly cloudy.


Feels Like: 52 °F
Forecast: 44 / 60 °F
Wind: 14 mph from Southwest

Location: Belfast / Harbour

Current Time: Oct 1, 2014 at 7:12:01 AM

Latest Report: Oct 1, 2014 at 6:50 AM


Visibility: N/A

Pressure: 30.07 "Hg

Humidity: 88%

Dew point: 52 °F

Location of BelfastLocation

Historic Weather in Belfast — Graph

°F

Belfast temperature yesterday

Maximum temperature yesterday: 68 °F (at 12:50 PM)
Minimum temperature yesterday: 55 °F (at 6:20 AM)
Average temperature yesterday: 62 °F

Past Weeks' High & Low Weather Summary

 TemperatureHumidityPressure
High68 °F (Sep 30, 12:50 PM)100% (Sep 16, 6:20 AM)30.33 "Hg (Sep 16, 6:20 AM)
Low46 °F (Sep 21, 6:20 AM)46% (Sep 22, 3:50 PM)29.86 "Hg (Sep 18, 2:20 PM)
Average60 °F79%30.06 "Hg
* Reported Sep 15 10:20 PM — Sep 30 8:50 PM, Belfast, Weather by CustomWeather, © 2014

Note: Actual official high and low records may vary slightly from our data, if they occured in-between our weather recording intervals... More about our weather records

Advertising

Belfast weather history for previous 24 hours

 ConditionsComfort  
Time TempWeatherWind HumidityBarometerVisibility
8:50 PM
Sep 30
63 °FLight rain. Partly cloudy.7 mph94%29.98 "HgN/A
8:20 PM61 °FLight rain. Partly cloudy.8 mph100%29.98 "HgN/A
7:50 PM63 °FScattered showers. Broken clouds.9 mph88%29.95 "HgN/A
7:20 PM63 °FScattered showers. Scattered clouds.12 mph88%29.95 "HgN/A
6:50 PM63 °FScattered showers. Broken clouds.14 mph88%29.95 "HgN/A
6:20 PM63 °FScattered showers. Broken clouds.14 mph88%29.95 "Hg6 mi
5:50 PM63 °FScattered showers. Broken clouds.14 mph88%29.95 "Hg6 mi
5:20 PM63 °FDrizzle. Broken clouds.16 mph88%29.95 "Hg6 mi
4:50 PM63 °FDrizzle. Broken clouds.17 mph88%29.95 "Hg5 mi
4:20 PM63 °FDrizzle. Broken clouds.18 mph88%29.98 "Hg4 mi
3:50 PM64 °FLight rain. Broken clouds.18 mph83%29.98 "HgN/A
3:20 PM64 °FScattered showers. Scattered clouds.18 mph83%30.01 "HgN/A
2:50 PM64 °FScattered showers. Scattered clouds.15 mph83%30.01 "HgN/A
2:20 PM66 °FPartly sunny.13 mph73%30.01 "HgN/A
1:50 PM66 °FPartly sunny.16 mph73%30.01 "HgN/A
1:20 PM68 °FPassing clouds.17 mph69%30.04 "HgN/A
12:50 PM68 °FPassing clouds.13 mph69%30.04 "HgN/A
12:20 PM66 °FPassing clouds.13 mph73%30.04 "HgN/A
11:50 AM66 °FPassing clouds.15 mph73%30.04 "HgN/A
11:20 AM66 °FPassing clouds.12 mph73%30.04 "HgN/A
10:50 AM64 °FPassing clouds.12 mph73%30.04 "HgN/A
10:20 AM63 °FPassing clouds.8 mph83%30.04 "HgN/A
9:50 AM61 °FPassing clouds.8 mph83%30.04 "HgN/A
9:20 AM61 °FPassing clouds.7 mph83%30.04 "HgN/A
8:50 AM57 °FPassing clouds.6 mph88%30.04 "HgN/A
8:20 AM57 °FPassing clouds.7 mph88%30.04 "HgN/A
7:50 AM57 °FPassing clouds.7 mph88%30.04 "HgN/A
7:20 AM55 °FPassing clouds.3 mph88%30.04 "HgN/A
Weather by CustomWeather, © 2014

See weather overviewHow to use our weather pages